User: anonymous   Login
Location: Bernadets
(43.3537°N, 0.3167°E)
Time: 18:18:30
(UTC+00:00)
Language:

Cosmos 1626 Rocket - Orbit

View from above orbital plane
View from above orbital plane
View from above satellite
View from above satellite

Ground track
Ground track

The orbit data is extracted from the following two-line orbital elements,

1 15495U 85009B   22021.54810457  .00000161  00000-0  16441-4 0  9995
2 15495  82.5224  54.1641 0019924 184.7249 175.3781 14.83952806977843
Epoch (UTC): 21 January 2022 13:09:16
Eccentricity: 0.0019924
inclination: 82.5224°
perigee height: 603 km
apogee height: 631 km
right ascension of ascending node: 54.1641°
argument of perigee: 184.7249°
revolutions per day: 14.83952806
mean anomaly at epoch: 175.3781°
orbit number at epoch: 97784

The dashed part of the orbit path shows where the satellite is in the earth's shadow,  

DLR